Cloud_Cover
4 0 0 0 17 5 34 9 0 0 0 0 0 0 0 0 0 3 0 0 0 0 0 0 0 0 12 0 0 0 0 0 0 0 26 100 4 1 19 58 100 99 100 99 100 100 77 100 75
1 1 0 0 30 97 72 0 0 0 0 0 0 0 0 0 0 0 0 0 0 0 0 0 0 6 5 4 0 0 0 5 7 98 53 8 39 0 86 100 97 72 100 100 100 100 99 69 51
3 1 1 3 10 86 22 0 0 0 0 0 0 0 0 0 0 0 0 0 0 0 0 0 0 5 7 0 2 2 5 65 0 4 0 0 0 0 97 100 23 10 59 98 41 71 5 1 24
0 5 5 5 65 0 0 0 0 0 0 0 0 0 0 0 0 0 0 0 0 0 0 0 0 0 0 6 0 14 47 1 1 0 0 0 0 5 88 72 0 3 1 2 8 95 0 5 1
0 0 3 4 2 0 0 0 0 0 0 0 0 0 0 0 0 0 0 0 0 0 0 0 0 0 0 0 0 1 15 0 0 0 0 0 0 0 0 0 0 0 2 21 1 2 0 0 3
0 0 5 24 3 0 0 0 0 0 0 0 0 0 0 0 0 0 0 0 0 0 0 0 0 0 0 0 0 0 3 0 0 0 0 0 0 0 0 0 0 0 0 0 0 0 0 0 0
0 0 4 1 0 0 0 0 0 0 0 0 0 0 0 0 0 0 0 0 0 0 0 0 0 0 0 0 0 0 0 0 0 0 0 0 0 0 0 0 0 0 0 0 0 0 0 0 0
0 0 0 0 0 0 0 0 0 0 0 0 0 0 0 0 0 0 0 0 0 0 0 0 0 0 0 0 0 0 0 0 0 0 0 0 0 0 0 0 0 0 0 0 0 0 0 0 0
0 0 0 0 0 0 0 0 0 0 0 0 0 0 0 0 0 0 0 0 0 0 0 0 0 0 0 0 0 0 0 0 0 0 0 0 0 0 0 0 0 0 0 0 0 0 0 0 0
0 0 0 0 0 0 0 0 0 0 0 0 0 0 0 0 0 0 0 0 0 0 0 0 0 0 0 0 0 0 0 0 0 0 0 0 0 0 0 0 0 0 0 0 0 0 0 0 0
0 0 0 0 0 0 0 0 0 0 0 0 0 0 0 0 0 0 0 0 0 0 0 0 0 0 0 0 0 0 0 0 0 0 0 0 0 0 0 0 0 0 0 0 0 0 0 0 0
0 0 0 0 0 0 0 0 0 0 0 0 0 0 0 0 0 0 0 0 0 0 0 0 0 0 0 0 0 0 0 0 0 0 0 0 0 0 0 0 0 0 0 0 0 0 0 0 0
0 0 0 0 0 0 0 0 0 0 0 0 0 0 0 0 0 0 0 0 0 0 0 0 0 0 0 0 0 0 0 0 0 0 0 0 0 0 0 0 0 0 0 0 0 0 0 0 0
0 0 0 0 0 0 0 0 0 0 0 0 0 0 0 0 0 0 0 0 0 0 0 0 0 0 0 0 0 0 0 0 0 0 0 0 0 0 0 0 0 0 0 0 0 0 0 0 0
0 0 0 0 0 0 0 0 0 0 0 0 0 0 0 0 0 0 0 1 3 1 0 0 0 0 0 0 0 0 0 0 0 0 0 0 0 0 0 0 0 0 0 0 0 0 0 0 0
0 0 0 0 0 0 0 0 0 0 0 0 0 0 0 0 0 0 0 0 0 0 0 0 3 0 0 0 0 0 0 0 0 0 0 0 0 0 0 0 0 0 0 0 0 0 0 0 0
0 0 0 0 0 0 0 0 0 0 0 0 0 0 0 0 0 0 0 0 0 0 0 0 2 5 5 4 0 0 0 0 0 0 0 0 0 0 0 0 0 0 0 0 0 0 0 0 0
0 0 0 0 5 5 4 2 5 0 0 0 0 0 0 0 0 0 0 0 0 0 0 0 1 5 5 5 5 5 1 0 0 0 0 0 0 0 0 0 0 0 0 0 0 0 0 0 0
0 0 0 0 3 5 5 4 5 5 3 0 0 0 0 0 0 0 0 0 0 0 0 0 0 0 1 5 14 5 5 5 5 0 0 0 0 0 0 0 0 0 0 0 0 0 0 0 0
0 0 0 0 0 0 4 4 5 2 5 6 3 0 0 0 0 0 0 0 0 0 0 0 0 0 0 0 5 26 39 8 5 5 5 5 5 1 0 0 0 0 0 0 0 0 0 0 0
0 0 0 0 0 0 0 0 2 5 5 88 5 0 0 0 0 0 0 0 0 2 0 2 0 0 0 0 0 4 26 98 81 22 5 5 8 5 5 1 0 0 0 0 0 0 0 0 0
0 0 0 0 0 0 0 0 3 0 0 96 77 3 0 0 0 0 0 0 0 0 0 0 1 1 0 0 0 1 4 78 100 100 100 68 46 46 59 13 5 5 4 0 0 0 0 0 0
0 0 0 0 0 0 0 0 4 5 0 1 100 8 5 5 5 5 0 5 5 4 4 5 5 3 3 5 4 1 5 1 6 85 100 100 100 100 100 100 86 65 55 6 4 1 0 0 0
0 0 0 0 0 0 0 0 0 5 6 2 10 100 58 5 5 5 5 5 5 5 5 0 2 2 5 0 1 2 0 4 0 2 7 86 100 100 100 100 100 100 100 94 52 26 9 27 6
79 3 0 0 0 0 0 0 5 5 17 8 51 100 75 14 38 21 29 16 5 15 5 5 2 0 0 4 0 2 0 4 0 4 5 2 6 60 100 100 100 100 100 100 100 100 100 91 88
5 47 4 0 0 0 0 0 0 2 5 5 100 100 74 15 11 100 83 100 26 30 86 5 5 5 3 0 0 2 4 5 0 0 3 5 5 5 5 39 100 100 100 100 100 100 100 100 100
5 5 5 5 0 0 0 0 0 3 15 82 100 100 72 5 5 43 33 100 38 84 87 19 5 5 3 4 0 0 0 5 95 6 2 0 5 17 49 12 5 34 100 100 100 100 100 100 100
96 83 99 5 0 0 0 0 5 4 3 80 100 100 100 100 15 6 94 42 96 82 48 98 12 13 5 5 4 4 2 77 60 5 32 14 2 4 42 23 10 5 5 97 100 100 100 100 100
100 100 100 5 5 5 4 5 82 5 6 15 100 100 100 100 100 67 38 11 100 88 100 18 62 59 34 82 6 5 4 1 2 5 42 100 73 5 4 37 5 5 5 17 100 100 100 100 100
100 100 100 69 5 81 22 4 77 8 54 100 100 100 100 100 100 44 32 76 32 85 90 100 86 94 68 61 57 22 5 5 5 3 48 100 100 90 6 5 5 5 5 5 8 71 100 100 100